HS2LXA-WX Weather Reports


time (UTC)temp
C
wind
direction
speed
KPH
gust
KPH
rain 1hr
cm
rain 24hr
cm
rain mn
cm
humidity
%
barometer
mb
20260504192333 30 202 0.0 0.0 0.00 0.00 0.10 73 1013.1
20260504191034 30 22 4.8 12.9 0.00 0.00 0.10 76 1013.1
20260504190029 30 225 0.0 0.0 0.00 0.00 0.10 73 1013.1
20260504185029 30 225 0.0 0.0 0.00 0.00 0.10 72 1013.2
20260504184029 30 0 3.2 8.0 0.00 0.00 0.10 72 1013.1
20260504181349 30 0 0.0 0.0 0.00 0.00 0.10 71 1013.2
20260504175741 30 112 4.8 11.3 0.05 0.00 0.10 72 1013.1
20260504174742 30 0 0.0 0.0 0.05 0.00 0.10 70 1013.2
20260504173421 30 0 0.0 3.2 0.03 0.00 0.05 70 1013.1
20260504172421 31 22 11.3 24.1 0.03 0.00 0.05 69 1013.1
20260504171421 31 270 0.0 0.0 0.03 0.00 0.05 69 1013.2
20260504170236 31 0 0.0 0.0 0.00 0.00 0.00 68 1013.2
20260504160237 30 225 0.0 1.6 0.03 0.05 1.96 69 1013.2
20260504150159 31 90 0.0 0.0 0.00 0.00 0.00 78 1013.2
20260504141319 31 112 0.0 0.0 0.00 0.00 0.00 77 1013.2
20260504140318 31 22 0.0 0.0 0.00 0.00 0.00 76 1013.1
20260504130553 31 0 0.0 0.0 0.00 0.00 0.00 75 1013.1
20260504081149 35 0 0.0 0.0 0.00 0.00 0.00 60 1013.1
20260504070207 36 67 0.0 0.0 0.00 0.00 0.00 60 1013.1
20260504050323 35 225 12.9 30.6 0.00 0.00 0.00 63 1013.1
20260504045323 35 112 14.5 35.4 0.00 0.00 0.00 62 1013.1
20260504043450 35 112 12.9 30.6 0.00 0.00 0.00 64 1013.1
20260504040054 36 67 29.0 66.0 0.00 0.00 0.00 59 1013.2
20260504035055 36 67 24.1 53.1 0.00 0.00 0.00 59 1013.2
20260504034050 36 315 8.0 19.3 0.00 0.00 0.00 60 1013.2
20260504033051 35 112 24.1 53.1 0.00 0.00 0.00 60 1013.2
20260504032050 35 225 8.0 19.3 0.00 0.00 0.00 61 1013.2
20260504030828 35 225 3.2 8.0 0.00 0.00 0.00 60 1013.1
20260504025830 35 112 12.9 29.0 0.00 0.00 0.00 61 1013.1
20260504024828 35 202 0.0 1.6 0.00 0.00 0.00 61 1013.1
20260504023826 35 112 24.1 54.7 0.00 0.00 0.00 63 1013.1
20260504021402 35 225 35.4 82.1 0.00 0.00 0.00 61 1013.2
20260504020406 35 67 1.6 4.8 0.00 0.00 0.00 62 1013.1
20260504015402 35 112 6.4 14.5 0.00 0.00 0.00 61 1013.2
20260504014400 35 0 9.7 24.1 0.00 0.00 0.00 62 1013.1
20260504013401 34 315 8.0 17.7 0.00 0.00 0.00 63 1013.1
20260504012357 34 315 12.9 29.0 0.00 0.00 0.00 65 1013.1
20260504010904 33 67 20.9 48.3 0.00 0.00 0.00 66 1013.1
20260504005903 33 112 14.5 33.8 0.00 0.00 0.00 66 1013.2
20260504004903 33 112 6.4 14.5 0.00 0.00 0.00 67 1013.1
20260504003905 33 112 3.2 8.0 0.00 0.00 0.00 68 1013.1
20260504001450 32 315 4.8 12.9 0.00 0.00 0.00 69 1013.1
20260504000450 32 67 8.0 17.7 0.00 0.00 0.00 69 1013.1
20260503235449 32 67 16.1 35.4 0.00 0.00 0.00 70 1013.1
20260503234447 32 202 1.6 4.8 0.00 0.00 0.00 69 1013.1
20260503233444 32 67 0.0 0.0 0.00 0.00 0.00 68 1013.2
20260503231712 32 67 1.6 3.2 0.00 0.00 0.00 69 1013.2
20260503230059 32 67 12.9 29.0 0.00 0.00 0.00 69 1013.1
20260503223943 32 0 0.0 1.6 0.00 0.00 0.00 68 1013.2
20260503222942 32 67 4.8 11.3 0.00 0.00 0.00 68 1013.2
20260503221942 32 202 3.2 6.4 0.00 0.00 0.00 68 1013.1
20260503220942 32 67 3.2 8.0 0.00 0.00 0.00 68 1013.2
20260503215942 32 67 4.8 12.9 0.00 0.00 0.00 68 1013.1
20260503214943 32 0 38.6 86.9 0.00 0.00 0.00 68 1013.2
20260503212401 32 135 19.3 43.5 0.00 0.00 0.00 68 1013.1
20260503211401 32 0 14.5 32.2 0.00 0.00 0.00 68 1013.1
20260503210402 32 315 0.0 0.0 0.00 0.00 0.00 69 1013.2
20260503205401 32 112 0.0 1.6 0.00 0.00 0.00 70 1013.1
20260503203733 32 112 16.1 35.4 0.00 0.00 0.00 70 1013.2
20260503202734 32 225 8.0 19.3 0.00 0.00 0.00 70 1013.1
20260503201520 32 67 16.1 37.0 0.00 0.00 0.00 69 1013.1
20260503200520 32 112 14.5 32.2 0.00 0.00 0.00 69 1013.1
20260503195521 32 202 9.7 22.5 0.00 0.00 0.00 69 1013.1
20260503194142 32 112 0.0 1.6 0.00 0.00 0.00 70 1013.2